Weather History for Florence, SC

Change the Weather History Date:

Monday, September 9, 2013

  Actual Average Record
Temperature  
Mean Temperature 79 °F 76 °F  
Max Temperature 92 °F 86 °F 97 °F (1954)
Min Temperature 65 °F 67 °F 53 °F (1951)
Degree Days  
Heating Degree Days 0 0  
Month to date heating degree days 0 0  
Since 1 July heating degree days 0 0  
Cooling Degree Days 14 11  
Month to date cooling degree days 139 110  
Year to date cooling degree days 1766 1780  
Growing Degree Days 28 (Base 50)    
Moisture  
Dew Point 67 °F    
Average Humidity 72    
Maximum Humidity 100    
Minimum Humidity 44    
Precipitation  
Precipitation 0.00 in 0.13 in 2.30 in (1967)
Month to date precipitation 0.08 1.21  
Year to date precipitation 46.54 31.69  
Sea Level Pressure  
Sea Level Pressure 30.06 in    
Wind  
Wind Speed 4 mph (East)    
Max Wind Speed 12 mph    
Max Gust Speed 15 mph    
Visibility 6 miles    
Events Fog    
T = Trace of Precipitation, MM = Missing Value Source: NWS Daily Summary

Daily Weather History Graph

Daily Weather History Graph

Search for Another Location

Airport:

Trip Planner

Search our weather history database for the weather conditions in past years. The results will help you decide how hot, cold, wet, or windy it might be!

Date:

Astronomy

Sep. 09, 2013 Rise Set
Actual Time 6:58 AM EDT 7:33 PM EDT
Civil Twilight 6:32 AM EDT 7:58 PM EDT
Nautical Twilight 6:03 AM EDT 8:28 PM EDT
Astronomical Twilight 5:32 AM EDT 8:58 PM EDT
Moon 11:04 AM EDT (9/9) 10:03 PM EDT (9/9)
Length of Visible Light 13h 26m
Length of Day
12h 35m
Waxing Crescent, 19% of the Moon is Illuminated
Sep 9
Waxing Crescent
Sep 12
First Quarter
Sep 19
Full
Sep 26
Last Quarter
Oct 4
New

Hourly Weather History & Observations

Time (EDT) Temp. Heat Index Dew Point Humidity Pressure Visibility Wind Dir Wind Speed Gust Speed Precip Events Conditions
12:53 AM 69.1 °F - 66.0 °F 90% 29.98 in 7.0 mi Calm Calm - N/A   Clear
1:53 AM 68.0 °F - 64.9 °F 90% 29.98 in 6.0 mi Calm Calm - N/A   Clear
2:53 AM 66.9 °F - 64.0 °F 90% 29.99 in 8.0 mi Calm Calm - N/A   Clear
3:53 AM 66.9 °F - 64.0 °F 90% 29.99 in 8.0 mi North 3.5 mph - N/A   Clear
4:53 AM 66.9 °F - 64.9 °F 93% 30.00 in 7.0 mi Calm Calm - N/A   Clear
5:53 AM 66.0 °F - 64.0 °F 93% 30.01 in 4.0 mi Calm Calm - N/A   Clear
6:11 AM 66.2 °F - 64.4 °F 94% 30.02 in 4.0 mi NE 3.5 mph - N/A   Scattered Clouds
6:22 AM 66.2 °F - 64.4 °F 94% 30.03 in 4.0 mi Calm Calm - N/A   Mostly Cloudy
6:36 AM 66.2 °F - 64.4 °F 94% 30.03 in 1.8 mi NE 3.5 mph - N/A   Overcast
6:44 AM 66.2 °F - 64.4 °F 94% 30.03 in 0.2 mi NE 3.5 mph - N/A Fog Fog
6:53 AM 66.0 °F - 64.9 °F 96% 30.03 in 0.2 mi Calm Calm - N/A Fog Fog
7:51 AM 66.2 °F - 66.2 °F 100% 30.05 in 0.2 mi NE 3.5 mph - N/A Fog Fog
7:53 AM 66.9 °F - 66.0 °F 97% 30.04 in 0.2 mi NE 3.5 mph - N/A Fog Fog
8:01 AM 68.0 °F - 66.2 °F 94% 30.05 in 0.2 mi NE 3.5 mph - N/A Fog Fog
8:53 AM 70.0 °F - 69.1 °F 97% 30.06 in 0.2 mi East 3.5 mph - N/A Fog Fog
9:04 AM 71.6 °F - 69.8 °F 94% 30.07 in 0.5 mi ENE 3.5 mph - N/A Fog Fog
9:14 AM 71.6 °F - 69.8 °F 94% 30.08 in 1.8 mi ESE 3.5 mph - N/A   Overcast
9:22 AM 71.6 °F - 69.8 °F 94% 30.08 in 3.0 mi ESE 3.5 mph - N/A   Mostly Cloudy
9:35 AM 71.6 °F - 69.8 °F 94% 30.08 in 7.0 mi ESE 4.6 mph - N/A   Scattered Clouds
9:53 AM 77.0 °F - 70.0 °F 79% 30.08 in 10.0 mi ESE 5.8 mph - N/A   Clear
10:53 AM 82.9 °F 87.5 °F 71.1 °F 67% 30.09 in 10.0 mi East 3.5 mph - N/A   Clear
11:53 AM 87.1 °F 92.0 °F 70.0 °F 57% 30.09 in 10.0 mi Variable 4.6 mph - N/A   Clear
12:53 PM 90.0 °F 91.7 °F 64.9 °F 43% 30.09 in 10.0 mi Variable 6.9 mph - N/A   Partly Cloudy
1:53 PM 90.0 °F 92.4 °F 66.0 °F 45% 30.09 in 10.0 mi Variable 4.6 mph - N/A   Clear
2:53 PM 90.0 °F 92.4 °F 66.0 °F 45% 30.08 in 10.0 mi East 8.1 mph - N/A   Partly Cloudy
3:53 PM 90.0 °F 92.4 °F 66.0 °F 45% 30.07 in 10.0 mi Variable 4.6 mph - N/A   Partly Cloudy
4:53 PM 90.0 °F 93.6 °F 68.0 °F 48% 30.07 in 10.0 mi ENE 6.9 mph - N/A   Scattered Clouds
5:53 PM 89.1 °F 92.1 °F 66.9 °F 48% 30.06 in 10.0 mi SE 8.1 mph - N/A   Scattered Clouds
6:53 PM 86.0 °F 90.1 °F 69.1 °F 57% 30.07 in 10.0 mi SSE 8.1 mph - N/A   Partly Cloudy
7:53 PM 82.0 °F 85.9 °F 70.0 °F 67% 30.09 in 10.0 mi SSE 6.9 mph - N/A   Mostly Cloudy
8:53 PM 79.0 °F - 70.0 °F 74% 30.11 in 10.0 mi SSE 3.5 mph - N/A   Partly Cloudy
9:53 PM 77.0 °F - 70.0 °F 79% 30.12 in 10.0 mi SSE 4.6 mph - N/A   Mostly Cloudy
10:53 PM 75.0 °F - 69.1 °F 82% 30.14 in 10.0 mi South 3.5 mph - N/A   Clear
11:53 PM 75.0 °F - 69.1 °F 82% 30.14 in 10.0 mi Calm Calm - N/A   Clear